CAPE
4 16 16 11 11 8 7 6 2 0 23 0 0 2 1 3 2 1 4 3 1 9 6 2 0 0 0 2 0 0 0 0 0 0 0 0 0 0 0 0 0 0 0 0 0
13 16 12 8 8 7 6 4 6 1 1 42 10 1 2 8 15 1 0 0 0 48 18 11 4 0 1 0 0 0 0 0 0 0 0 0 0 0 0 0 0 0 0 0 2
13 15 15 9 4 6 7 7 9 27 0 8 39 49 20 6 19 0 0 0 0 23 62 70 8 6 3 0 0 0 0 0 0 0 0 0 0 0 0 0 0 0 0 1 2
6 15 17 8 2 8 9 7 9 25 0 4 72 92 41 51 5 4 0 0 0 26 63 45 34 18 1 2 0 0 0 0 0 0 0 0 0 0 0 0 0 0 0 0 1
4 11 17 2 3 9 9 8 4 21 2 13 101 106 51 25 5 0 0 3 3 1 53 20 8 7 3 5 0 0 0 0 0 0 0 0 0 0 0 0 0 0 0 0 1
6 7 14 3 1 7 5 2 3 26 22 26 152 116 45 19 0 0 0 12 19 2 62 26 4 8 6 7 0 0 0 0 0 0 0 0 0 0 0 0 0 0 0 0 0
2 6 6 0 1 2 4 3 2 12 34 5 88 39 27 0 4 36 0 20 35 44 87 40 44 57 44 22 0 0 0 0 0 0 0 0 0 0 0 0 0 0 0 0 0
3 0 2 0 1 0 3 0 1 6 4 7 69 33 4 1 52 59 101 50 34 40 58 8 0 15 27 0 0 0 0 0 0 0 0 0 0 0 0 0 0 0 0 0 0
7 1 5 6 0 0 0 0 1 0 34 64 32 3 4 42 60 71 30 25 26 17 12 0 0 0 1 2 1 3 0 0 0 0 0 0 0 0 0 0 0 0 0 0 0
6 9 7 7 0 0 3 0 0 0 0 11 26 10 1 23 143 46 57 0 48 7 3 1 0 0 0 2 0 0 1 0 0 0 0 0 0 14 0 0 0 0 0 0 0
5 11 8 8 0 0 0 12 2 1 0 2 3 2 45 8 125 34 38 7 6 39 11 1 0 0 3 1 6 0 0 0 0 0 0 0 0 0 0 0 0 0 0 0 0
6 10 0 0 0 0 0 21 4 0 0 0 0 2 0 7 54 46 40 14 4 6 0 1 2 0 0 0 1 0 0 0 1 0 0 0 0 0 0 0 0 0 0 0 0
0 0 0 0 0 0 5 30 2 0 1 0 0 4 23 40 7 27 34 26 14 10 3 5 0 0 0 1 8 1 1 2 0 0 0 0 0 0 0 0 0 0 0 0 0
0 0 0 0 0 3 24 1 1 19 0 0 0 3 0 22 1 14 2 7 15 6 2 7 0 0 3 1 6 2 0 0 3 0 0 0 0 0 0 0 0 0 0 0 0
0 0 0 0 1 13 3 0 0 5 0 0 0 0 1 17 2 1 0 5 3 0 0 0 1 1 0 0 0 1 0 0 0 0 0 0 0 0 0 0 0 0 0 0 0
0 0 0 4 20 3 0 1 1 0 0 0 0 1 4 12 9 3 1 0 0 0 0 1 0 0 0 0 0 0 0 0 2 1 0 0 0 0 0 0 0 0 0 0 0
0 0 0 0 1 0 0 2 0 0 0 0 0 1 1 3 3 1 3 3 0 0 0 0 0 0 0 0 1 0 1 0 0 0 0 0 0 0 0 0 0 0 0 0 0
0 0 0 0 0 0 1 3 0 0 0 1 1 0 0 1 1 3 4 0 0 1 0 0 0 3 0 0 0 0 0 0 0 0 0 0 0 0 0 0 0 0 0 0 0
0 0 0 0 0 0 6 0 1 1 3 1 0 0 0 0 1 3 4 1 0 0 1 0 0 0 0 0 0 1 0 0 0 0 0 0 0 0 0 0 0 0 0 0 0
0 0 0 0 0 0 0 0 0 0 0 1 0 0 0 0 0 1 1 1 0 0 0 0 0 0 0 0 0 0 0 0 0 0 0 0 0 0 0 0 0 0 0 0 0
0 0 0 0 0 0 0 0 0 0 1 1 0 0 1 1 1 0 0 0 0 0 0 1 0 0 0 1 0 0 0 0 0 0 0 0 0 0 0 0 0 0 0 0 0
0 0 0 0 0 0 1 0 6 2 0 2 0 1 0 1 0 0 0 2 0 0 2 1 2 1 0 2 0 0 2 0 0 0 0 0 0 0 0 0 0 0 0 0 0
0 0 0 0 0 0 0 0 5 1 1 0 2 0 1 0 0 0 1 2 1 0 0 2 0 1 1 0 0 1 0 0 0 0 0 0 0 0 0 0 0 0 0 0 0
0 0 0 0 0 0 0 0 0 0 1 0 1 1 1 0 0 1 0 1 3 2 1 1 0 0 0 0 0 0 1 0 1 0 0 0 0 0 0 0 0 0 0 0 0
0 0 0 0 0 0 0 0 0 0 0 0 0 2 1 0 0 0 1 1 3 5 4 1 0 0 0 0 0 0 0 0 0 0 0 0 0 0 0 0 0 0 0 0 0
0 0 0 0 0 0 0 0 0 1 0 0 0 5 1 1 2 0 1 0 1 1 1 2 1 2 1 0 0 0 0 1 0 0 0 0 0 0 0 0 0 0 0 0 0
0 0 0 0 0 0 0 0 0 0 0 0 1 1 1 1 2 5 2 2 1 1 1 1 0 0 0 0 0 0 0 0 0 0 0 0 0 0 0 0 0 0 0 0 0
CIN
-0 -0 -0 -0 -0 -0 -0 -0 -0 -0 -0 -0 -0 -0 -0 -0 -0 -0 -0 -0 -0 -16 -128 -107 -32 -0 -0 -79 -0 -0 -0 -0 -0 -0 -0 -0 -0 -0 -0 -0 -0 -0 -0 -0 -0
-0 -0 -0 -0 -0 -0 -0 -0 -0 -0 -0 -0 -9 -4 -0 -0 -0 -0 -0 -0 -0 -12 -30 -97 -114 -0 -0 -0 -0 -0 -0 -0 -0 -0 -0 -0 -0 -0 -0 -0 -0 -0 -0 -0 -0
-0 -0 -0 -0 -0 -0 -0 -0 -0 -0 -0 -0 -0 -0 -12 -0 -0 -0 -0 -0 -0 -5 -0 -31 -16 -0 -0 -0 -0 -0 -0 -0 -0 -0 -0 -0 -0 -0 -0 -0 -0 -0 -0 -0 -0
-0 -0 -0 -0 -0 -0 -0 -0 -0 -0 -0 -0 -0 -0 -4 -0 -0 -0 -0 -0 -0 -5 -0 -0 -1 -1 -0 -0 -0 -0 -0 -0 -0 -0 -0 -0 -0 -0 -0 -0 -0 -0 -0 -0 -0
-0 -0 -0 -0 -0 -0 -0 -0 -0 -0 -0 -24 -0 -0 -1 -1 -0 -0 -0 -1 -4 -9 -0 -48 -21 -0 -8 -2 -0 -0 -0 -0 -0 -0 -0 -0 -0 -0 -0 -0 -0 -0 -0 -0 -0
-0 -0 -0 -0 -0 -0 -0 -0 -0 -5 -14 -11 -0 -0 -1 -0 -0 -0 -0 -3 -1 -6 -2 -5 -0 -1 -1 -2 -0 -0 -0 -0 -0 -0 -0 -0 -0 -0 -0 -0 -0 -0 -0 -0 -0
-0 -0 -0 -0 -0 -0 -0 -0 -0 -1 -0 -0 -0 -0 -10 -0 -55 -63 -0 -10 -5 -0 -0 -0 -5 -1 -3 -0 -0 -0 -0 -0 -0 -0 -0 -0 -0 -0 -0 -0 -0 -0 -0 -0 -0
-0 -0 -0 -0 -0 -0 -0 -0 -0 -0 -0 -0 -0 -0 -0 -2 -92 -46 -13 -11 -5 -1 -0 -7 -0 -22 -1 -0 -0 -0 -0 -0 -0 -0 -0 -0 -0 -0 -0 -0 -0 -0 -0 -0 -0
-1 -0 -2 -0 -0 -0 -0 -0 -0 -0 -0 -0 -0 -0 -0 -47 -65 -106 -17 -1 -14 -6 -14 -0 -8 -0 -0 -0 -0 -0 -0 -0 -0 -0 -0 -0 -0 -0 -0 -0 -0 -0 -0 -0 -0
-0 -0 -2 -0 -0 -0 -0 -0 -0 -0 -1 -1 -0 -0 -0 -91 -1 -63 -9 -0 -0 -0 -0 -0 -0 -0 -4 -0 -0 -0 -0 -0 -0 -0 -0 -0 -0 -5 -0 -0 -0 -0 -0 -0 -0
-2 -1 -1 -0 -0 -0 -0 -1 -0 -0 -0 -0 -0 -0 -36 -1 -7 -43 -37 -8 -0 -0 -0 -0 -1 -0 -0 -0 -0 -0 -0 -0 -0 -0 -0 -0 -0 -0 -0 -0 -0 -0 -0 -0 -0
-1 -1 -0 -0 -0 -0 -0 -0 -0 -0 -0 -0 -0 -0 -0 -29 -0 -2 -7 -0 -0 -17 -0 -0 -0 -0 -0 -1 -0 -0 -0 -1 -0 -0 -0 -0 -0 -0 -0 -0 -0 -0 -0 -0 -0
-0 -0 -0 -0 -0 -0 -0 -0 -6 -1 -0 -0 -0 -0 -17 -4 -0 -2 -0 -0 -0 -0 -0 -0 -0 -0 -0 -0 -0 -0 -1 -0 -1 -0 -0 -0 -0 -0 -0 -0 -0 -0 -0 -0 -0
-0 -0 -0 -0 -0 -0 -0 -0 -15 -0 -0 -0 -0 -0 -0 -0 -0 -3 -0 -8 -1 -0 -0 -0 -0 -0 -0 -0 -0 -0 -0 -0 -0 -0 -0 -0 -0 -0 -0 -0 -0 -0 -0 -0 -0
-0 -0 -0 -0 -0 -0 -0 -0 -3 -0 -0 -0 -0 -0 -0 -0 -0 -0 -0 -10 -0 -0 -0 -0 -3 -1 -0 -0 -0 -0 -0 -0 -0 -0 -0 -0 -0 -0 -0 -0 -0 -0 -0 -0 -0
-0 -0 -0 -4 -0 -2 -0 -17 -0 -0 -0 -0 -0 -0 -0 -0 -0 -0 -3 -0 -0 -0 -0 -0 -0 -0 -0 -0 -0 -0 -0 -0 -0 -0 -0 -0 -0 -0 -0 -0 -0 -0 -0 -0 -0
-0 -0 -0 -0 -0 -0 -0 -0 -0 -0 -0 -0 -0 -0 -0 -0 -2 -0 -0 -0 -0 -0 -0 -0 -0 -0 -0 -0 -0 -0 -0 -0 -0 -0 -0 -0 -0 -0 -0 -0 -0 -0 -0 -0 -0
-0 -0 -0 -0 -0 -0 -0 -0 -0 -0 -0 -0 -0 -0 -0 -0 -0 -2 -0 -0 -0 -0 -0 -0 -0 -0 -1 -0 -0 -0 -0 -0 -0 -0 -0 -0 -0 -0 -0 -0 -0 -0 -0 -0 -0
-0 -0 -0 -0 -0 -0 -0 -0 -0 -0 -0 -0 -0 -0 -0 -0 -0 -0 -0 -0 -0 -0 -0 -0 -0 -0 -1 -0 -0 -0 -0 -0 -0 -0 -0 -0 -0 -0 -0 -0 -0 -0 -0 -0 -0
-0 -0 -0 -0 -0 -0 -0 -0 -0 -0 -0 -0 -0 -0 -0 -0 -0 -1 -0 -0 -0 -0 -0 -0 -0 -0 -0 -0 -0 -0 -0 -0 -0 -0 -0 -0 -0 -0 -0 -0 -0 -0 -0 -0 -0
-0 -0 -0 -0 -0 -0 -0 -0 -0 -0 -0 -0 -0 -0 -0 -0 -0 -0 -0 -0 -0 -0 -0 -0 -0 -0 -0 -0 -0 -0 -0 -0 -0 -0 -0 -0 -0 -0 -0 -0 -0 -0 -0 -0 -0
-0 -0 -0 -0 -0 -0 -0 -0 -0 -0 -0 -0 -0 -0 -0 -0 -0 -0 -0 -0 -0 -0 -0 -0 -0 -0 -0 -0 -0 -0 -0 -0 -0 -0 -0 -0 -0 -0 -0 -0 -0 -0 -0 -0 -0
-0 -0 -0 -0 -0 -0 -0 -0 -0 -0 -0 -0 -0 -0 -0 -0 -0 -0 -0 -0 -0 -0 -0 -0 -0 -0 -0 -0 -0 -0 -0 -0 -0 -0 -0 -0 -0 -0 -0 -0 -0 -0 -0 -0 -0
-0 -0 -0 -0 -0 -0 -0 -0 -0 -0 -0 -0 -0 -0 -0 -0 -0 -0 -0 -0 -0 -0 -0 -0 -0 -0 -0 -0 -0 -0 -0 -0 -0 -0 -0 -0 -0 -0 -0 -0 -0 -0 -0 -0 -0
-0 -0 -0 -0 -0 -0 -0 -0 -0 -0 -0 -0 -0 -0 -0 -0 -0 -0 -0 -0 -0 -0 -0 -0 -0 -0 -0 -0 -0 -0 -0 -0 -0 -0 -0 -0 -0 -0 -0 -0 -0 -0 -0 -0 -0
-0 -0 -0 -0 -0 -0 -0 -0 -0 -0 -0 -0 -0 -0 -0 -0 -0 -0 -0 -0 -0 -0 -0 -0 -0 -0 -0 -0 -0 -0 -0 -0 -0 -0 -0 -0 -0 -0 -0 -0 -0 -0 -0 -0 -0
-0 -0 -0 -0 -0 -0 -0 -0 -0 -0 -0 -0 -0 -0 -0 -0 -0 -0 -0 -0 -0 -0 -0 -0 -0 -0 -0 -0 -0 -0 -0 -0 -0 -0 -0 -0 -0 -0 -0 -0 -0 -0 -0 -0 -0
Wind_Speed
32 33 35 35 36 36 35 36 36 36 35 34 35 36 37 38 38 39 30 33 34 35 26 35 34 32 33 33 33 34 41 43 38 33 30 19 22 23 19 17 19 20 19 11 10
35 35 35 36 37 36 36 36 35 35 35 34 34 35 36 38 42 54 41 38 37 29 34 41 42 39 34 35 32 38 43 43 34 33 32 25 26 18 21 21 20 16 15 3 9
35 35 36 36 37 36 35 34 33 32 34 34 35 35 35 37 48 58 41 38 40 33 34 32 43 41 38 37 41 40 50 37 36 31 29 26 28 20 24 26 25 16 6 1 8
35 35 35 35 36 34 32 32 32 31 33 34 35 33 35 35 44 28 33 37 39 38 34 37 36 39 49 48 47 47 46 44 39 29 29 28 26 25 28 21 27 17 2 6 11
34 34 34 33 33 32 30 30 31 29 29 31 31 31 34 42 49 37 33 34 37 39 38 43 45 42 54 47 45 50 41 42 36 33 29 29 31 27 30 20 18 8 3 8 15
32 31 31 30 30 30 30 28 26 24 23 26 28 27 35 54 42 49 41 38 42 39 39 41 46 48 45 47 45 38 52 38 38 38 29 30 32 26 28 18 14 7 5 5 14
29 29 28 28 28 28 26 24 21 18 24 37 30 27 36 46 33 38 43 41 41 42 41 40 40 42 38 41 42 37 41 46 40 35 33 30 30 35 25 18 14 12 9 6 6
27 24 24 24 25 23 22 19 16 14 31 23 24 25 46 26 46 49 35 42 41 46 45 33 30 38 42 32 39 40 39 42 38 30 31 29 39 38 23 17 16 14 12 9 7
22 20 21 20 20 20 19 16 13 29 19 27 21 20 24 27 45 48 43 42 42 47 36 31 32 38 35 49 42 40 49 53 46 34 30 32 36 28 23 21 19 16 13 10 8
17 16 17 17 17 18 15 5 27 22 19 9 5 11 26 36 33 43 39 41 43 40 33 37 39 43 42 45 65 49 47 46 53 37 36 34 36 22 25 26 22 18 15 12 9
13 13 13 14 15 14 14 5 25 16 17 3 9 33 25 35 30 38 41 41 47 44 41 40 49 57 49 53 45 44 46 44 46 31 35 35 36 28 27 30 27 22 19 15 12
16 14 14 13 14 12 8 6 3 8 14 6 28 28 35 26 31 40 40 42 39 46 44 42 57 48 41 40 45 45 45 47 32 31 34 36 38 37 29 30 29 26 23 19 16
21 17 16 15 13 7 5 20 20 23 15 14 19 21 28 33 27 38 36 42 42 41 42 57 46 41 42 37 49 42 50 49 40 33 31 33 44 40 36 33 36 35 30 22 19
22 20 18 16 13 14 8 22 30 16 14 16 19 18 26 28 32 31 28 32 29 39 41 42 36 39 42 40 39 52 40 39 43 38 45 35 46 43 39 35 35 33 31 24 20
23 21 18 16 13 13 21 28 26 12 17 16 19 21 21 26 24 31 24 24 32 28 29 33 39 39 41 43 37 40 36 37 38 38 38 42 42 42 32 33 33 33 29 23 22
22 22 21 16 15 21 24 24 17 16 16 17 15 18 25 23 20 22 22 23 20 26 20 26 25 30 32 29 32 27 30 29 27 32 46 43 40 48 44 33 37 33 29 23 23
21 18 17 16 12 25 25 19 19 19 16 17 16 18 17 18 22 24 31 30 30 29 31 25 29 27 25 24 23 26 32 38 41 38 41 33 40 44 33 38 39 33 28 27 25
20 16 13 11 23 24 19 19 19 19 18 18 17 17 18 17 21 25 29 31 27 24 30 34 34 29 29 26 27 30 33 35 42 44 41 32 46 42 48 36 32 35 35 29 29
18 16 13 14 13 20 18 11 19 20 20 19 19 20 18 17 17 23 26 33 31 30 31 29 32 28 26 24 21 29 36 28 31 29 37 42 41 37 35 37 30 29 32 31 28
20 15 13 15 16 13 13 14 19 18 19 17 17 17 19 18 19 23 26 28 31 20 19 28 33 27 26 23 26 28 26 34 33 39 42 39 42 43 31 35 34 35 31 30 26
18 17 14 19 14 15 12 15 19 18 18 17 16 15 14 19 18 23 24 23 30 25 20 23 30 32 26 31 30 29 34 33 32 34 41 43 40 30 33 31 33 34 28 22 21
18 17 18 17 15 16 13 13 19 19 17 17 18 17 14 16 17 19 24 23 24 24 28 24 26 32 34 25 25 28 33 35 36 37 36 34 37 26 26 25 26 25 24 23 17
19 17 18 16 15 17 14 12 18 18 18 18 18 16 18 16 19 17 23 21 20 24 26 23 26 32 32 31 28 33 33 36 36 31 41 44 35 23 19 21 21 23 24 25 24
17 18 19 20 17 16 16 13 15 18 17 18 18 18 17 19 16 16 17 20 21 22 21 19 22 28 33 32 28 35 33 32 35 39 38 42 36 25 23 22 20 20 20 22 24
19 17 17 17 18 17 16 15 13 18 19 19 17 18 18 17 19 19 18 17 17 18 20 23 25 22 24 26 25 28 32 32 38 40 38 36 36 34 25 21 18 17 17 17 19
16 15 16 17 16 15 15 15 15 15 18 17 17 17 14 14 16 21 20 20 20 19 20 20 26 22 26 23 26 30 29 30 37 37 44 40 39 28 26 23 22 18 17 20 18
15 15 15 16 16 15 14 13 14 12 16 16 18 16 15 17 19 17 17 19 20 22 22 23 24 27 29 25 26 35 35 32 33 35 34 44 40 31 31 32 29 24 20 20 20
Wind_Direction
323 321 319 318 316 315 313 310 306 303 302 302 298 292 286 281 278 272 258 259 256 255 245 236 239 246 251 250 249 248 238 234 238 244 246 257 250 247 253 256 255 252 260 287 131
322 321 320 319 317 316 314 311 307 304 302 299 297 294 289 282 274 260 262 258 251 249 240 238 235 235 245 245 247 237 234 234 242 245 246 253 247 251 250 249 255 264 271 60 131
324 323 322 321 320 318 316 313 310 307 305 299 295 294 289 285 270 260 259 252 247 243 243 242 228 231 241 247 239 238 231 241 242 249 250 252 245 249 247 245 245 263 274 130 143
325 325 324 323 323 321 320 317 313 308 305 300 295 291 289 278 264 274 258 245 241 239 239 232 222 231 237 238 235 237 235 238 243 253 251 248 246 248 241 256 242 257 251 126 144
329 328 327 327 328 326 323 320 316 311 308 304 299 292 287 269 258 261 267 254 237 231 229 228 230 236 230 236 238 232 237 240 245 247 251 250 244 245 241 258 257 257 206 134 141
331 330 331 333 332 329 326 324 321 317 315 309 301 294 284 267 268 256 259 247 234 222 220 227 231 228 232 237 235 243 232 243 242 240 249 247 245 246 244 253 254 248 230 158 145
334 333 335 335 334 333 332 330 328 324 314 281 298 295 285 269 270 252 246 240 234 226 226 226 232 224 229 235 233 243 239 237 239 241 244 245 245 239 245 245 247 248 247 232 178
334 335 336 337 337 339 339 337 331 310 248 238 302 298 277 289 247 242 242 235 234 233 229 221 225 227 232 235 231 237 238 235 235 240 244 241 240 239 241 239 244 245 246 239 215
334 334 338 340 343 345 344 341 278 255 252 305 299 297 292 277 237 230 230 227 227 224 220 215 221 231 234 224 227 232 231 229 230 239 244 236 240 243 235 239 241 242 243 237 210
330 335 342 347 352 352 355 300 262 329 341 343 243 297 234 230 232 224 222 226 219 220 213 220 223 223 225 224 223 229 232 230 229 235 235 236 237 241 235 237 240 241 242 237 217
338 346 355 1 1 6 9 39 340 14 356 359 14 219 247 211 215 220 216 222 224 214 215 216 217 218 225 224 226 230 230 229 228 239 234 237 237 243 242 238 240 240 241 239 231
6 13 14 16 15 23 38 86 348 349 254 215 220 221 220 233 212 208 210 216 215 217 215 216 218 218 223 225 227 229 227 225 227 235 235 236 239 241 245 243 239 240 241 241 238
18 24 27 25 28 60 150 255 4 354 241 215 209 189 220 206 230 216 213 211 212 216 217 216 222 216 221 229 226 229 227 226 232 235 241 240 241 242 244 246 242 242 244 242 236
20 25 30 30 41 34 57 359 319 12 229 243 221 255 226 227 222 215 218 208 215 216 214 224 226 215 219 228 232 229 231 232 235 233 235 242 241 242 242 243 242 241 243 241 237
14 19 29 34 31 42 331 302 308 51 270 259 223 246 223 212 211 212 221 219 211 213 218 221 214 212 220 228 230 232 230 235 240 235 238 240 244 244 238 235 237 239 241 238 241
16 19 25 40 16 306 283 287 341 223 244 264 228 222 207 202 215 217 220 220 229 226 234 227 225 224 228 231 229 232 224 230 243 241 236 239 239 244 243 238 242 241 242 238 240
14 22 31 39 45 292 299 348 267 264 262 254 250 221 233 237 222 225 218 216 219 218 219 222 222 225 223 225 230 226 217 228 235 237 242 234 241 242 248 245 245 243 242 243 244
13 20 40 49 325 293 316 297 274 261 264 267 240 255 244 250 237 226 222 228 230 229 222 220 218 221 222 230 232 226 225 231 234 237 238 242 244 246 245 255 253 250 252 247 246
17 25 45 51 39 311 305 26 289 280 288 273 245 244 257 260 261 236 234 222 226 237 235 230 228 233 232 238 235 234 233 243 244 250 241 244 251 259 256 253 254 257 250 257 246
15 26 41 36 31 53 38 333 283 294 301 302 267 258 256 254 256 244 233 237 227 243 250 241 230 236 237 240 248 243 241 239 242 240 245 248 251 253 256 254 253 251 256 258 252
21 25 40 25 58 51 61 319 286 313 292 282 283 284 282 265 269 246 241 245 233 243 254 252 240 237 240 242 242 244 242 243 246 248 248 248 256 267 259 263 255 250 257 254 251
22 23 24 32 43 53 61 344 299 294 298 300 272 269 293 277 269 255 245 247 244 241 243 252 247 240 242 256 257 252 249 242 246 247 252 257 259 277 271 274 269 259 256 254 256
18 26 29 38 39 50 65 32 293 300 292 289 287 292 272 275 264 265 247 249 248 245 245 250 249 243 246 252 256 250 250 246 250 257 249 248 256 279 291 274 278 270 260 256 256
20 20 22 28 40 47 50 55 320 299 302 298 287 276 283 270 274 270 263 257 253 251 251 261 258 254 247 253 253 250 251 251 249 250 253 252 257 275 282 281 283 280 272 261 257
13 23 28 18 22 35 47 56 39 292 296 307 292 290 276 277 269 267 271 263 262 258 259 257 259 264 262 260 260 258 254 252 249 250 255 258 260 266 280 282 287 287 274 267 263
16 24 25 24 30 36 39 54 45 331 294 290 293 301 294 287 288 267 268 267 267 270 268 269 259 266 261 271 265 261 262 259 255 257 255 260 262 273 275 277 279 281 279 268 271
11 15 18 19 21 30 38 57 53 31 302 305 296 292 294 292 285 285 289 278 277 272 268 268 266 262 266 272 273 264 263 262 263 260 262 256 262 273 273 270 270 276 277 277 276